STARLINK-2657, 48655

Orbit data source: Space-Track

STARLINK-2657, 48655 is a payload satellite owned by SpaceX/Seattle (US) in LEO that was launched on Wed, 26 May 2021 UTC via an FALCON 9 launch vehicle from the Air Force Eastern Test Range (AFETR). Payload-class satellites include a variety of spacecraft equipped with specific instruments for various scientific and technological missions. These include communications satellites like Starlink; space stations such as the ISS; scientific satellites like the Hubble; Earth observation satellites from companies like Planet Labs, Umbra, and HawkEye 360; GPS; miniature CubeSats for education and research; and military/defense satellites.

Loading next visibility...
Identifier
48655, 2021-044T
Orbit
LEO
Country
Flag of USUS
Related business
Manufacturer
SpaceX/Seattle
Mission
Operational Commercial Communications
Bus & Motor
STARLINK, Unknown motor
Mass
260 kg wet, ~248 kg dry
Launch date (UTC)
2021-05-26 (5 years ago)
Launch vehicle
FALCON 9
Launch site
Air Force Eastern Test Range (AFETR)
Object type
Payload
Rocket body
Debris
Shape & HBR
Box + 1 Pan, 10.1 m
Radar Cross Section
13.562 m², Large (>1 m²)

Expand to show TLE details & history
Last TLE update: 3 days ago

TLE from 3 days ago
0 STARLINK-2657
1 48655U 21044T   26170.90817727  .00000268  00000-0  20389-4 0  9998
2 48655  53.1614 358.4466 0001199 100.7250 259.3887 15.31696852279489
Epoch: 2026-06-19T21:47Z
TLE epoch observation values (Epoch: 2026-06-19T21:47:46.516Z)
Latitude
0.00004°
Longitude
123.37241°
Altitude
471.801 km
Speed
7.631 km/s
True Right ascension
23h 53m 47s
True Declination
0° 00' 00"
Sunlit
Object was in daylight at epoch
Visualization orbit readout
Latitude
Unknown
Longitude
Unknown
Altitude
Unknown
Speed
Unknown
Apparent Right ascension
Unknown
Apparent Declination
Unknown
Sunlit
N/A
Visualization observer readout
Local Sidereal Time
21:35:42
Azimuth
Unknown
Elevation
Unknown
Doppler factor
Unknown
Orbital elements
Apogee altitude
471.827 km
Perigee altitude
470.185 km
Semi-major axis
6,849.143 km
Eccentricity
0.00012
Inclination
53.1614°
RAAN
358.4466°
Arg. of periapsis
100.725°
True anomaly
259.3752°
Mean anomaly
259.3887°
Eccentric anomaly
259.38195°
Mean motion
3.82903 °/min
Orbital period
94.02 mins
BSTAR
0.000020389
Loading maneuver chart data...
Computing Atmospheric mass density...

Documentation

Showing up to 5 results
|